Time,TemperatureF,DewpointF,PressureIn,WindDirection,WindDirectionDegrees,WindSpeedMPH,WindSpeedGustMPH,Humidity,HourlyPrecipIn,Conditions,Clouds,dailyrainin,SoftwareType,DateUTC
2013-08-08 00:00:00,57.8,54.3,30.03,NNE,12,0.0,0.0,88,0.00,,,0.00,Wunderground v.1.15,2013-08-08 07:00:00,
2013-08-08 00:10:00,57.8,54.3,30.03,NNE,12,0.0,0.0,88,0.00,,,0.00,Wunderground v.1.15,2013-08-08 07:10:00,
2013-08-08 00:15:00,57.7,54.2,30.03,NNE,12,0.0,0.0,88,0.00,,,0.00,Wunderground v.1.15,2013-08-08 07:15:00,
2013-08-08 00:25:00,57.5,54.0,30.03,NNE,12,0.0,0.0,88,0.00,,,0.00,Wunderground v.1.15,2013-08-08 07:25:00,
2013-08-08 00:30:00,57.3,53.8,30.03,NNE,12,0.0,0.0,88,0.00,,,0.00,Wunderground v.1.15,2013-08-08 07:30:00,
2013-08-08 00:40:00,57.2,54.0,30.03,NNE,17,0.0,0.0,89,0.00,,,0.00,Wunderground v.1.15,2013-08-08 07:40:00,
2013-08-08 00:45:00,57.2,54.0,30.03,NNE,17,0.0,0.0,89,0.00,,,0.00,Wunderground v.1.15,2013-08-08 07:45:00,
2013-08-08 00:55:00,57.3,54.1,30.03,NNE,17,0.0,0.0,89,0.00,,,0.00,Wunderground v.1.15,2013-08-08 07:55:00,
2013-08-08 01:00:00,57.4,54.5,30.03,NNE,17,0.0,0.0,90,0.00,,,0.00,Wunderground v.1.15,2013-08-08 08:00:00,
2013-08-08 01:10:00,57.8,54.9,30.03,NNE,17,0.0,0.0,90,0.00,,,0.00,Wunderground v.1.15,2013-08-08 08:10:00,
2013-08-08 01:15:00,58.1,55.2,30.03,NNE,17,0.0,0.0,90,0.00,,,0.00,Wunderground v.1.15,2013-08-08 08:15:00,
2013-08-08 01:25:00,58.6,55.7,30.02,NNE,17,0.0,0.0,90,0.00,,,0.00,Wunderground v.1.15,2013-08-08 08:25:00,
2013-08-08 01:35:00,59.3,56.4,30.02,NNE,16,0.0,0.0,90,0.00,,,0.00,Wunderground v.1.15,2013-08-08 08:35:00,
2013-08-08 01:45:00,59.9,56.3,30.01,NNE,16,0.0,0.0,88,0.00,,,0.00,Wunderground v.1.15,2013-08-08 08:45:00,
2013-08-08 01:55:00,60.4,56.5,30.01,NNE,16,0.0,0.0,87,0.00,,,0.00,Wunderground v.1.15,2013-08-08 08:55:00,
2013-08-08 02:00:00,60.6,56.7,30.01,NNE,16,0.0,0.0,87,0.00,,,0.00,Wunderground v.1.15,2013-08-08 09:00:00,
2013-08-08 02:10:00,60.9,56.7,30.01,East,87,0.0,0.0,86,0.00,,,0.00,Wunderground v.1.15,2013-08-08 09:10:00,
2013-08-08 02:20:00,61.0,56.5,30.01,East,87,0.0,0.0,85,0.00,,,0.00,Wunderground v.1.15,2013-08-08 09:20:00,
2013-08-08 02:25:00,61.1,56.6,30.01,East,87,0.0,0.0,85,0.00,,,0.00,Wunderground v.1.15,2013-08-08 09:25:00,
2013-08-08 02:34:00,61.1,56.6,30.01,East,87,0.0,0.0,85,0.00,,,0.00,Wunderground v.1.15,2013-08-08 09:34:00,
2013-08-08 02:40:00,61.2,56.7,30.01,East,87,0.0,0.0,85,0.00,,,0.00,Wunderground v.1.15,2013-08-08 09:40:00,
2013-08-08 02:50:00,61.3,56.4,30.00,East,87,0.0,0.0,84,0.00,,,0.00,Wunderground v.1.15,2013-08-08 09:50:00,
2013-08-08 03:00:00,61.2,56.3,30.00,East,81,0.0,0.0,84,0.00,,,0.00,Wunderground v.1.15,2013-08-08 10:00:00,
2013-08-08 03:10:00,61.2,56.3,30.00,East,80,0.0,0.0,84,0.00,,,0.00,Wunderground v.1.15,2013-08-08 10:10:00,
2013-08-08 03:20:00,61.2,56.3,30.00,East,80,0.0,0.0,84,0.00,,,0.00,Wunderground v.1.15,2013-08-08 10:20:00,
2013-08-08 03:30:00,61.1,56.2,30.00,East,80,0.0,0.0,84,0.00,,,0.00,Wunderground v.1.15,2013-08-08 10:30:00,
2013-08-08 03:35:00,61.1,56.2,30.00,East,80,0.0,0.0,84,0.00,,,0.00,Wunderground v.1.15,2013-08-08 10:35:00,
2013-08-08 03:40:00,61.1,56.2,30.00,East,80,0.0,0.0,84,0.00,,,0.00,Wunderground v.1.15,2013-08-08 10:40:00,
2013-08-08 03:50:00,61.2,56.3,30.00,East,80,0.0,0.0,84,0.00,,,0.00,Wunderground v.1.15,2013-08-08 10:50:00,
2013-08-08 04:00:00,61.2,56.3,29.99,East,80,0.0,0.0,84,0.00,,,0.00,Wunderground v.1.15,2013-08-08 11:00:00,
2013-08-08 04:10:00,61.3,56.4,29.99,East,80,0.0,0.0,84,0.00,,,0.00,Wunderground v.1.15,2013-08-08 11:10:00,
2013-08-08 04:20:00,61.3,56.4,29.99,East,80,0.0,0.0,84,0.00,,,0.00,Wunderground v.1.15,2013-08-08 11:20:00,
2013-08-08 04:30:00,61.3,56.4,29.99,East,80,0.0,0.0,84,0.00,,,0.00,Wunderground v.1.15,2013-08-08 11:30:00,
2013-08-08 04:35:00,61.3,56.4,29.99,East,80,0.0,0.0,84,0.00,,,0.00,Wunderground v.1.15,2013-08-08 11:35:00,
2013-08-08 04:40:00,61.3,56.4,29.99,East,80,0.0,0.0,84,0.00,,,0.00,Wunderground v.1.15,2013-08-08 11:40:00,
2013-08-08 04:50:00,61.2,56.0,29.99,SE,144,0.0,0.0,83,0.00,,,0.00,Wunderground v.1.15,2013-08-08 11:50:00,
2013-08-08 05:00:00,61.1,55.6,29.99,SE,144,0.0,0.0,82,0.00,,,0.00,Wunderground v.1.15,2013-08-08 12:00:00,
2013-08-08 05:05:00,61.1,55.6,29.98,SSW,206,0.0,0.0,82,0.00,,,0.00,Wunderground v.1.15,2013-08-08 12:05:00,
2013-08-08 05:14:00,61.1,55.6,29.98,SSW,213,0.0,0.0,82,0.00,,,0.00,Wunderground v.1.15,2013-08-08 12:14:00,
2013-08-08 05:20:00,61.1,55.6,29.99,SSW,213,0.0,0.0,82,0.00,,,0.00,Wunderground v.1.15,2013-08-08 12:20:00,
2013-08-08 05:30:00,61.0,55.5,29.99,SSW,213,0.0,0.0,82,0.00,,,0.00,Wunderground v.1.15,2013-08-08 12:30:00,
2013-08-08 05:40:00,60.9,55.0,29.99,SSW,213,0.0,0.0,81,0.00,,,0.00,Wunderground v.1.15,2013-08-08 12:40:00,
2013-08-08 05:45:00,60.9,55.0,29.99,SSW,213,0.0,0.0,81,0.00,,,0.00,Wunderground v.1.15,2013-08-08 12:45:00,
2013-08-08 05:55:00,60.8,54.6,29.99,West,261,0.0,1.0,80,0.00,,,0.00,Wunderground v.1.15,2013-08-08 12:55:00,
2013-08-08 06:00:00,60.8,54.6,29.99,WSW,240,0.0,0.0,80,0.00,,,0.00,Wunderground v.1.15,2013-08-08 13:00:00,
2013-08-08 06:10:00,60.7,54.5,29.99,West,259,0.0,0.0,80,0.00,,,0.00,Wunderground v.1.15,2013-08-08 13:10:00,
2013-08-08 06:20:00,60.5,54.0,29.99,NW,304,1.0,1.0,79,0.00,,,0.00,Wunderground v.1.15,2013-08-08 13:20:00,
2013-08-08 06:30:00,60.4,54.2,29.99,West,260,1.0,1.0,80,0.00,,,0.00,Wunderground v.1.15,2013-08-08 13:30:00,
2013-08-08 06:39:00,60.3,54.1,30.00,WSW,240,1.0,1.0,80,0.00,,,0.00,Wunderground v.1.15,2013-08-08 13:39:00,
2013-08-08 06:45:00,60.2,54.0,30.00,West,260,1.0,1.0,80,0.00,,,0.00,Wunderground v.1.15,2013-08-08 13:45:00,
2013-08-08 06:55:00,60.2,54.0,30.00,SW,225,1.0,2.0,80,0.00,,,0.00,Wunderground v.1.15,2013-08-08 13:55:00,
2013-08-08 07:00:00,60.2,54.0,30.00,NW,311,1.0,2.0,80,0.00,,,0.00,Wunderground v.1.15,2013-08-08 14:00:00,
2013-08-08 07:10:00,60.2,54.0,30.00,SW,215,1.0,1.0,80,0.00,,,0.00,Wunderground v.1.15,2013-08-08 14:10:00,
2013-08-08 07:20:00,60.3,53.8,30.00,SW,231,0.0,1.0,79,0.00,,,0.00,Wunderground v.1.15,2013-08-08 14:20:00,
2013-08-08 07:30:00,60.4,53.9,30.00,SSW,211,1.0,1.0,79,0.00,,,0.00,Wunderground v.1.15,2013-08-08 14:30:00,
2013-08-08 07:40:00,60.6,53.7,30.00,WSW,256,1.0,1.0,78,0.00,,,0.00,Wunderground v.1.15,2013-08-08 14:40:00,
2013-08-08 07:50:00,60.8,53.9,30.00,West,279,1.0,1.0,78,0.00,,,0.00,Wunderground v.1.15,2013-08-08 14:50:00,
2013-08-08 08:00:00,61.1,53.8,30.00,SW,234,2.0,3.0,77,0.00,,,0.00,Wunderground v.1.15,2013-08-08 15:00:00,
2013-08-08 08:09:00,61.3,53.7,30.00,SW,231,2.0,2.0,76,0.00,,,0.00,Wunderground v.1.15,2013-08-08 15:09:00,
2013-08-08 08:15:00,61.4,53.8,30.01,SW,232,1.0,2.0,76,0.00,,,0.00,Wunderground v.1.15,2013-08-08 15:15:00,
2013-08-08 08:25:00,61.7,54.1,30.01,SW,215,2.0,3.0,76,0.00,,,0.00,Wunderground v.1.15,2013-08-08 15:25:00,
2013-08-08 08:34:00,62.1,54.4,30.01,WSW,238,1.0,1.0,76,0.00,,,0.00,Wunderground v.1.15,2013-08-08 15:34:00,
2013-08-08 08:40:00,62.5,54.5,30.01,SW,215,1.0,1.0,75,0.00,,,0.00,Wunderground v.1.15,2013-08-08 15:40:00,
2013-08-08 08:50:00,63.2,54.8,30.01,NW,306,0.0,0.0,74,0.00,,,0.00,Wunderground v.1.15,2013-08-08 15:50:00,
2013-08-08 09:00:00,63.8,55.0,30.01,NW,313,0.0,2.0,73,0.00,,,0.00,Wunderground v.1.15,2013-08-08 16:00:00,
2013-08-08 09:10:00,64.2,55.7,30.00,SSW,213,0.0,0.0,74,0.00,,,0.00,Wunderground v.1.15,2013-08-08 16:10:00,
2013-08-08 09:20:00,64.4,55.6,30.00,SSW,213,0.0,0.0,73,0.00,,,0.00,Wunderground v.1.15,2013-08-08 16:20:00,
2013-08-08 09:30:00,64.7,55.8,30.00,SSE,168,0.0,0.0,73,0.00,,,0.00,Wunderground v.1.15,2013-08-08 16:30:00,
2013-08-08 09:35:00,64.6,55.4,30.00,SSE,168,0.0,0.0,72,0.00,,,0.00,Wunderground v.1.15,2013-08-08 16:35:00,
2013-08-08 09:40:00,64.9,56.0,30.00,East,84,0.0,0.0,73,0.00,,,0.00,Wunderground v.1.15,2013-08-08 16:40:00,
2013-08-08 09:50:00,65.8,56.1,30.00,NNW,344,0.0,0.0,71,0.00,,,0.00,Wunderground v.1.15,2013-08-08 16:50:00,
2013-08-08 10:00:00,66.5,56.4,30.00,NNW,342,0.0,0.0,70,0.00,,,0.00,Wunderground v.1.15,2013-08-08 17:00:00,
2013-08-08 10:09:00,66.6,56.9,30.00,East,98,0.0,0.0,71,0.00,,,0.00,Wunderground v.1.15,2013-08-08 17:09:00,
2013-08-08 10:15:00,66.8,56.7,30.01,ENE,71,0.0,0.0,70,0.00,,,0.00,Wunderground v.1.15,2013-08-08 17:15:00,
2013-08-08 10:25:00,67.2,57.1,30.01,ENE,67,0.0,0.0,70,0.00,,,0.00,Wunderground v.1.15,2013-08-08 17:25:00,
2013-08-08 10:34:00,68.1,56.7,30.01,North,5,0.0,0.0,67,0.00,,,0.00,Wunderground v.1.15,2013-08-08 17:34:00,
2013-08-08 10:40:00,68.7,56.9,30.01,North,355,0.0,1.0,66,0.00,,,0.00,Wunderground v.1.15,2013-08-08 17:40:00,
2013-08-08 10:50:00,69.4,57.1,30.01,NE,39,0.0,1.0,65,0.00,,,0.00,Wunderground v.1.15,2013-08-08 17:50:00,
2013-08-08 10:55:00,69.8,57.5,30.00,NE,45,0.0,3.0,65,0.00,,,0.00,Wunderground v.1.15,2013-08-08 17:55:00,
2013-08-08 11:00:00,70.2,57.4,30.01,ENE,62,0.0,0.0,64,0.00,,,0.00,Wunderground v.1.15,2013-08-08 18:00:00,
2013-08-08 11:10:00,70.6,57.8,30.00,ESE,111,0.0,0.0,64,0.00,,,0.00,Wunderground v.1.15,2013-08-08 18:10:00,
2013-08-08 11:20:00,71.0,57.8,30.00,NW,315,0.0,0.0,63,0.00,,,0.00,Wunderground v.1.15,2013-08-08 18:20:00,
2013-08-08 11:30:00,71.0,57.8,30.00,NW,319,0.0,0.0,63,0.00,,,0.00,Wunderground v.1.15,2013-08-08 18:30:00,
2013-08-08 11:40:00,70.1,57.4,30.00,NNW,338,1.0,1.0,64,0.00,,,0.00,Wunderground v.1.15,2013-08-08 18:40:00,
2013-08-08 11:50:00,71.1,58.3,30.00,NNW,330,0.0,1.0,64,0.00,,,0.00,Wunderground v.1.15,2013-08-08 18:50:00,
2013-08-08 12:00:00,71.5,58.2,30.00,East,101,1.0,1.0,63,0.00,,,0.00,Wunderground v.1.15,2013-08-08 19:00:00,
2013-08-08 12:10:00,72.1,57.9,30.00,North,5,1.0,1.0,61,0.00,,,0.00,Wunderground v.1.15,2013-08-08 19:10:00,
2013-08-08 12:15:00,71.9,58.2,30.00,NNW,330,1.0,2.0,62,0.00,,,0.00,Wunderground v.1.15,2013-08-08 19:15:00,
2013-08-08 12:25:00,70.8,57.6,30.00,NNW,346,1.0,1.0,63,0.00,,,0.00,Wunderground v.1.15,2013-08-08 19:25:00,
2013-08-08 12:35:00,71.2,58.0,29.99,West,267,2.0,4.0,63,0.00,,,0.00,Wunderground v.1.15,2013-08-08 19:35:00,
2013-08-08 12:40:00,71.4,58.1,29.99,West,281,2.0,2.0,63,0.00,,,0.00,Wunderground v.1.15,2013-08-08 19:40:00,
2013-08-08 12:50:00,70.8,58.0,29.99,NW,317,4.0,4.0,64,0.00,,,0.00,Wunderground v.1.15,2013-08-08 19:50:00,
2013-08-08 13:00:00,71.6,58.8,29.99,NW,304,2.0,2.0,64,0.00,,,0.00,Wunderground v.1.15,2013-08-08 20:00:00,
2013-08-08 13:10:00,73.4,59.1,29.98,WNW,303,1.0,1.0,61,0.00,,,0.00,Wunderground v.1.15,2013-08-08 20:10:00,
2013-08-08 13:20:00,73.7,59.4,29.99,SE,128,2.0,2.0,61,0.00,,,0.00,Wunderground v.1.15,2013-08-08 20:20:00,
2013-08-08 13:25:00,73.7,58.9,29.99,NE,35,2.0,2.0,60,0.00,,,0.00,Wunderground v.1.15,2013-08-08 20:25:00,
2013-08-08 13:34:00,73.6,58.9,29.99,North,360,2.0,2.0,60,0.00,,,0.00,Wunderground v.1.15,2013-08-08 20:34:00,
2013-08-08 13:40:00,73.0,59.2,29.98,WNW,296,1.0,1.0,62,0.00,,,0.00,Wunderground v.1.15,2013-08-08 20:40:00,
2013-08-08 13:50:00,73.1,58.8,29.98,SSW,196,2.0,2.0,61,0.00,,,0.00,Wunderground v.1.15,2013-08-08 20:50:00,
2013-08-08 14:00:00,72.4,58.6,29.98,NW,305,3.0,3.0,62,0.00,,,0.00,Wunderground v.1.15,2013-08-08 21:00:00,
2013-08-08 14:05:00,72.4,58.6,29.98,NW,309,2.0,3.0,62,0.00,,,0.00,Wunderground v.1.15,2013-08-08 21:05:00,
2013-08-08 14:15:00,73.2,58.9,29.98,NW,309,2.0,4.0,61,0.00,,,0.00,Wunderground v.1.15,2013-08-08 21:15:00,
2013-08-08 14:25:00,73.1,58.8,29.98,NW,315,2.0,2.0,61,0.00,,,0.00,Wunderground v.1.15,2013-08-08 21:25:00,
2013-08-08 14:35:00,73.3,58.6,29.98,NNE,32,2.0,4.0,60,0.00,,,0.00,Wunderground v.1.15,2013-08-08 21:35:00,
2013-08-08 14:45:00,74.1,59.3,29.97,NNW,338,2.0,2.0,60,0.00,,,0.00,Wunderground v.1.15,2013-08-08 21:45:00,
2013-08-08 14:55:00,74.9,59.1,29.97,NNE,28,1.0,4.0,58,0.00,,,0.00,Wunderground v.1.15,2013-08-08 21:55:00,
2013-08-08 15:00:00,75.2,58.9,29.97,WNW,284,1.0,1.0,57,0.00,,,0.00,Wunderground v.1.15,2013-08-08 22:00:00,
2013-08-08 15:05:00,75.2,58.9,29.97,NNE,12,2.0,3.0,57,0.00,,,0.00,Wunderground v.1.15,2013-08-08 22:05:00,
2013-08-08 15:15:00,74.5,58.3,29.97,NNW,340,3.0,3.0,57,0.00,,,0.00,Wunderground v.1.15,2013-08-08 22:15:00,
2013-08-08 15:25:00,73.7,58.0,29.97,North,355,4.0,4.0,58,0.00,,,0.00,Wunderground v.1.15,2013-08-08 22:25:00,
2013-08-08 15:35:00,73.9,58.2,29.96,North,351,3.0,9.0,58,0.00,,,0.00,Wunderground v.1.15,2013-08-08 22:35:00,
2013-08-08 15:40:00,73.9,58.2,29.96,West,274,4.0,4.0,58,0.00,,,0.00,Wunderground v.1.15,2013-08-08 22:40:00,
2013-08-08 15:50:00,74.6,58.4,29.96,NNW,338,2.0,8.0,57,0.00,,,0.00,Wunderground v.1.15,2013-08-08 22:50:00,
2013-08-08 15:55:00,74.1,58.4,29.95,North,360,3.0,8.0,58,0.00,,,0.00,Wunderground v.1.15,2013-08-08 22:55:00,
2013-08-08 16:00:00,74.6,58.8,29.95,NNW,343,3.0,6.0,58,0.00,,,0.00,Wunderground v.1.15,2013-08-08 23:00:00,
2013-08-08 16:05:00,74.9,58.6,29.95,NNW,347,2.0,6.0,57,0.00,,,0.00,Wunderground v.1.15,2013-08-08 23:05:00,
2013-08-08 16:15:00,74.3,58.6,29.95,NNE,24,3.0,5.0,58,0.00,,,0.00,Wunderground v.1.15,2013-08-08 23:15:00,
2013-08-08 16:20:00,73.6,57.4,29.95,WNW,301,3.0,3.0,57,0.00,,,0.00,Wunderground v.1.15,2013-08-08 23:20:00,
2013-08-08 16:30:00,73.9,57.7,29.94,NNE,33,1.0,1.0,57,0.00,,,0.00,Wunderground v.1.15,2013-08-08 23:30:00,
2013-08-08 16:40:00,73.4,57.7,29.94,NNE,13,3.0,3.0,58,0.00,,,0.00,Wunderground v.1.15,2013-08-08 23:40:00,
2013-08-08 16:50:00,73.4,57.7,29.94,North,360,1.0,1.0,58,0.00,,,0.00,Wunderground v.1.15,2013-08-08 23:50:00,
2013-08-08 17:00:00,73.8,58.1,29.94,WNW,283,1.0,2.0,58,0.00,,,0.00,Wunderground v.1.15,2013-08-09 00:00:00,
2013-08-08 17:10:00,73.9,58.2,29.93,NNE,15,2.0,2.0,58,0.00,,,0.00,Wunderground v.1.15,2013-08-09 00:10:00,
2013-08-08 17:15:00,74.1,57.9,29.93,North,5,1.0,3.0,57,0.00,,,0.00,Wunderground v.1.15,2013-08-09 00:15:00,
2013-08-08 17:25:00,73.7,57.5,29.94,South,176,2.0,2.0,57,0.00,,,0.00,Wunderground v.1.15,2013-08-09 00:25:00,
2013-08-08 17:35:00,73.6,57.9,29.94,WSW,240,1.0,10.0,58,0.00,,,0.00,Wunderground v.1.15,2013-08-09 00:35:00,
2013-08-08 17:40:00,72.8,56.7,29.93,NNW,341,2.0,2.0,57,0.00,,,0.00,Wunderground v.1.15,2013-08-09 00:40:00,
2013-08-08 17:50:00,72.0,56.4,29.93,SSW,201,2.0,7.0,58,0.00,,,0.00,Wunderground v.1.15,2013-08-09 00:50:00,
2013-08-08 17:55:00,70.9,55.9,29.93,SSW,197,4.0,7.0,59,0.00,,,0.00,Wunderground v.1.15,2013-08-09 00:55:00,
2013-08-08 18:00:00,69.9,55.8,29.93,South,191,5.0,5.0,61,0.00,,,0.00,Wunderground v.1.15,2013-08-09 01:00:00,
2013-08-08 18:10:00,68.9,55.3,29.93,West,278,4.0,4.0,62,0.00,,,0.00,Wunderground v.1.15,2013-08-09 01:10:00,
2013-08-08 18:20:00,67.7,55.1,29.94,WSW,246,5.0,15.0,64,0.00,,,0.00,Wunderground v.1.15,2013-08-09 01:20:00,
2013-08-08 18:25:00,66.6,54.9,29.93,SSW,203,6.0,15.0,66,0.00,,,0.00,Wunderground v.1.15,2013-08-09 01:25:00,
2013-08-08 18:35:00,65.7,54.4,29.93,WNW,298,4.0,7.0,67,0.00,,,0.00,Wunderground v.1.15,2013-08-09 01:35:00,
2013-08-08 18:40:00,65.3,54.5,29.93,West,269,5.0,7.0,68,0.00,,,0.00,Wunderground v.1.15,2013-08-09 01:40:00,
2013-08-08 18:50:00,64.9,54.5,29.94,West,267,3.0,6.0,69,0.00,,,0.00,Wunderground v.1.15,2013-08-09 01:50:00,
2013-08-08 19:00:00,63.7,53.7,29.93,WSW,244,5.0,5.0,70,0.00,,,0.00,Wunderground v.1.15,2013-08-09 02:00:00,
2013-08-08 19:10:00,62.7,53.5,29.94,SW,234,4.0,4.0,72,0.00,,,0.00,Wunderground v.1.15,2013-08-09 02:10:00,
2013-08-08 19:15:00,62.3,53.5,29.94,SSW,211,4.0,6.0,73,0.00,,,0.00,Wunderground v.1.15,2013-08-09 02:15:00,
2013-08-08 19:20:00,62.0,53.6,29.94,SSW,196,3.0,3.0,74,0.00,,,0.00,Wunderground v.1.15,2013-08-09 02:20:00,
2013-08-08 19:30:00,61.8,53.4,29.94,West,270,2.0,7.0,74,0.00,,,0.00,Wunderground v.1.15,2013-08-09 02:30:00,
2013-08-08 19:35:00,61.6,53.2,29.95,NW,314,3.0,8.0,74,0.00,,,0.00,Wunderground v.1.15,2013-08-09 02:35:00,
2013-08-08 19:45:00,60.9,52.9,29.95,South,190,4.0,7.0,75,0.00,,,0.00,Wunderground v.1.15,2013-08-09 02:45:00,
2013-08-08 19:50:00,60.6,52.6,29.95,SSW,206,2.0,3.0,75,0.00,,,0.00,Wunderground v.1.15,2013-08-09 02:50:00,
2013-08-08 20:00:00,59.8,52.2,29.95,SSW,210,4.0,5.0,76,0.00,,,0.00,Wunderground v.1.15,2013-08-09 03:00:00,
2013-08-08 20:05:00,59.5,52.3,29.95,WSW,249,4.0,5.0,77,0.00,,,0.00,Wunderground v.1.15,2013-08-09 03:05:00,
2013-08-08 20:15:00,58.9,52.1,29.95,SW,235,2.0,3.0,78,0.00,,,0.00,Wunderground v.1.15,2013-08-09 03:15:00,
2013-08-08 20:25:00,58.5,51.7,29.95,SW,236,2.0,3.0,78,0.00,,,0.00,Wunderground v.1.15,2013-08-09 03:25:00,
2013-08-08 20:35:00,58.2,51.7,29.96,West,281,1.0,1.0,79,0.00,,,0.00,Wunderground v.1.15,2013-08-09 03:35:00,
2013-08-08 20:50:00,57.8,51.7,29.96,WSW,240,1.0,1.0,80,0.00,,,0.00,Wunderground v.1.15,2013-08-09 03:50:00,
2013-08-08 21:00:00,57.6,51.8,29.97,SSW,208,2.0,5.0,81,0.00,,,0.00,Wunderground v.1.15,2013-08-09 04:00:00,
2013-08-08 21:05:00,57.6,51.8,29.97,SW,227,2.0,5.0,81,0.00,,,0.00,Wunderground v.1.15,2013-08-09 04:05:00,
2013-08-08 21:10:00,57.5,51.7,29.97,NW,312,2.0,2.0,81,0.00,,,0.00,Wunderground v.1.15,2013-08-09 04:10:00,
2013-08-08 21:15:00,57.4,51.6,29.97,West,261,1.0,2.0,81,0.00,,,0.00,Wunderground v.1.15,2013-08-09 04:15:00,
2013-08-08 21:25:00,57.2,51.8,29.98,WSW,249,0.0,1.0,82,0.00,,,0.00,Wunderground v.1.15,2013-08-09 04:25:00,
2013-08-08 21:35:00,57.0,51.6,29.98,WSW,251,0.0,0.0,82,0.00,,,0.00,Wunderground v.1.15,2013-08-09 04:35:00,
2013-08-08 21:40:00,56.9,51.5,29.98,WSW,237,0.0,0.0,82,0.00,,,0.00,Wunderground v.1.15,2013-08-09 04:40:00,
2013-08-08 21:50:00,56.6,51.5,29.98,WNW,288,0.0,1.0,83,0.00,,,0.00,Wunderground v.1.15,2013-08-09 04:50:00,
2013-08-08 22:00:00,56.4,51.3,29.98,WNW,288,0.0,0.0,83,0.00,,,0.00,Wunderground v.1.15,2013-08-09 05:00:00,
2013-08-08 22:09:00,56.2,51.4,29.99,NW,304,0.0,0.0,84,0.00,,,0.00,Wunderground v.1.15,2013-08-09 05:09:00,
2013-08-08 22:15:00,56.2,51.4,29.99,NW,304,0.0,0.0,84,0.00,,,0.00,Wunderground v.1.15,2013-08-09 05:15:00,
2013-08-08 22:25:00,56.2,51.4,29.99,WSW,253,1.0,1.0,84,0.00,,,0.00,Wunderground v.1.15,2013-08-09 05:25:00,
2013-08-08 22:35:00,56.2,51.4,29.99,WNW,286,0.0,1.0,84,0.00,,,0.00,Wunderground v.1.15,2013-08-09 05:35:00,
2013-08-08 22:45:00,56.2,51.4,29.99,West,280,0.0,0.0,84,0.00,,,0.00,Wunderground v.1.15,2013-08-09 05:45:00,
2013-08-08 22:50:00,56.3,51.5,29.98,West,281,0.0,0.0,84,0.00,,,0.00,Wunderground v.1.15,2013-08-09 05:50:00,
2013-08-08 23:00:00,56.4,51.6,29.98,NW,316,0.0,0.0,84,0.00,,,0.00,Wunderground v.1.15,2013-08-09 06:00:00,
2013-08-08 23:10:00,56.4,51.6,29.98,NW,316,0.0,0.0,84,0.00,,,0.00,Wunderground v.1.15,2013-08-09 06:10:00,
2013-08-08 23:20:00,56.3,51.5,29.98,NW,316,0.0,0.0,84,0.00,,,0.00,Wunderground v.1.15,2013-08-09 06:20:00,
2013-08-08 23:30:00,56.0,51.6,29.98,NW,316,0.0,0.0,85,0.00,,,0.00,Wunderground v.1.15,2013-08-09 06:30:00,
2013-08-08 23:40:00,55.7,51.6,29.98,NW,316,0.0,0.0,86,0.00,,,0.00,Wunderground v.1.15,2013-08-09 06:40:00,
2013-08-08 23:50:00,55.7,51.9,29.98,NW,316,0.0,0.0,87,0.00,,,0.00,Wunderground v.1.15,2013-08-09 06:50:00,
2013-08-08 23:55:00,55.7,51.9,29.98,NW,316,0.0,0.0,87,0.00,,,0.00,Wunderground v.1.15,2013-08-09 06:55:00,